Simultaneous Nadir Overpasses (SNOs) Predictions

Prediction of SNOs between METOP-B and NOAA-19 Satellite Orbit:

Table of predicted SNOs for the next 14.0 days since TLE Epoch: 12/18/2021
Index Date (METOP-B) Time (METOP-B) Lat,Lon (METOP-B) SZA (METOP-B ) Date (NOAA-19) Time (NOAA-19) Lat,Lon (NOAA-19) SZA (NOAA-19 ) Distance(km) Time Diff (sec)
1 12/28/2021 20:03:43 -80.74, 90.60 74.82 12/28/2021 20:02:36 -80.73, 90.55 74.86 1.70 67
2 12/28/2021 20:54:24 80.73,-102.14 105.17 12/28/2021 20:53:33 80.73,-102.32 105.14 3.21 51
3 12/28/2021 21:45:05 -80.73, 65.11 74.84 12/28/2021 21:44:36 -80.72, 65.10 74.86 0.57 29
4 12/28/2021 22:35:46 80.72,-127.64 105.15 12/28/2021 22:35:33 80.73,-127.76 105.14 2.30 13
5 12/28/2021 23:26:27 -80.72, 39.62 74.87 12/28/2021 23:26:36 -80.72, 39.66 74.86 0.75 9
6 12/29/2021 00:17:08 80.71,-153.13 105.12 12/29/2021 00:17:33 80.73,-153.21 105.14 1.86 25
7 12/29/2021 01:07:49 -80.71, 14.13 74.89 12/29/2021 01:08:36 -80.72, 14.21 74.86 1.91 47



Historial Predications of SNOs between METOP-B and NOAA-19
